DELTA 1 DEB, 7049

Orbit data source: Space-Track

DELTA 1 DEB, 7049 is space debris in LEO originally from a launch on Tue, 06 Nov 1973 UTC launched from the Air Force Western Test Range (AFWTR). Debris objects in space refer to the collection of defunct objects orbiting the Earth. Examples of debris include non-operational satellites, rocket bodies, and fragments generated from explosions, collisions, or faulty payload assembly.

Loading next visibility...
Identifier
7049, 1973-086AR
Orbit
LEO
Country
Flag of USUS
Related business
Manufacturer
Unknown
Mission
Spacecraft
Bus & Motor
Unknown
Mass
Unknown
Launch date (UTC)
1973-11-06 (53 years ago)
Launch vehicle
Unknown
Launch site
Air Force Western Test Range (AFWTR)
Object type
Payload
Rocket body
Debris
Shape & HBR
Unknown shape, 0.1 m
Radar Cross Section
Medium (>0.1 m² and <1 m²)

Expand to show TLE details & history
Last TLE update: 16 hours ago

TLE from 16 hours ago
0 DELTA 1 DEB
1  7049U 73086AR  26263.04363992 -.00000136  00000-0 -12019-2 0  9996
2  7049 101.8216 173.0388 0252823  20.4494 350.8980 11.93550657295861
Epoch: 2026-09-20T01:02Z
TLE epoch observation values (Epoch: 2026-09-20T01:02:50.489Z)
Latitude
10.5972°
Longitude
156.15171°
Altitude
1,509.813 km
Speed
7.199 km/s
True Right ascension
11h 23m 13s
True Declination
10° 32' 28"
Sunlit
Object was in daylight at epoch
Visualization orbit readout
Latitude
Unknown
Longitude
Unknown
Altitude
Unknown
Speed
Unknown
Apparent Right ascension
Unknown
Apparent Declination
Unknown
Sunlit
N/A
Visualization observer readout
Local Sidereal Time
09:47:11
Azimuth
Unknown
Elevation
Unknown
Doppler factor
Unknown
Orbital elements
Apogee altitude
1,911.912 km
Perigee altitude
1,503.066 km
Semi-major axis
8,085.626 km
Eccentricity
0.02528
Inclination
101.8216°
RAAN
173.0388°
Arg. of periapsis
20.4494°
True anomaly
350.42496°
Mean anomaly
350.898°
Eccentric anomaly
350.66298°
Mean motion
2.9852 °/min
Orbital period
120.6 mins
BSTAR
-0.0012019
Loading maneuver chart data...
Computing Atmospheric mass density...
Loading historical data...
Loading historical data...
Loading historical data...
Loading historical data...
Loading historical data...
Loading historical data...
Loading historical data...

Documentation

Showing up to 5 results
|